Suomi 100 (43804 NORAD) Tracking and Keplerian Element Data

This shows tracking and keplerian element data for the satellite.

Feedback or suggestion? Click here.




ElementValue
Catalog43804
NameSuomi 100
Epoch Orbit569
Epoch Day10.83161516
Epoch Year2019
RAAN84.6042
Inclination97.7616
Eccentricity0.0016414
Argument of Perigee135.4315
Mean Anonmoly224.8229
Mean Motion14.95158797
Decay Rate1.97E-06
L11 43804U 18099AY 19010.83161516 .00000197 00000-0 23181-4 0 9994
L22 43804 97.7616 84.6042 0016414 135.4315 224.8229 14.95158797 5694

Live tracking and technical data element details for Suomi 100 (NORAD 43804). Suomi 100 can be tracked NOW for your location showing map with azimuth and elevation plus other details from your city location.

Track the satellite on the map from your city or location and see movement details for azimuth, elevation, latitude, longitude, range, height, and movement on the map or in text.







IsCatalogInMostPopularTable: catalog: 43804, numindb: 38
Update: records affected: 1



GetName: 43804 Suomi 100

Hit Count: updated at: Thu, 17 Jan 2019 14:39:43 GMT